Henderson, KY

5:44 AM CDT on July 26, 2017 (GMT -0500)
Henderson City-County

Weather History for KEHR - May, 2013

Change the Weather History Date:

Tuesday, May 21, 2013

  Actual Average Record
Temperature  
Mean Temperature 69 °F -  
Max Temperature 78 °F 79 °F 95 °F (1941)
Min Temperature 60 °F 57 °F 39 °F (1954)
Cooling Degree Days 4    
Growing Degree Days 19 (Base 50)    
Moisture  
Dew Point 58 °F    
Average Humidity 63    
Maximum Humidity 77    
Minimum Humidity 53    
Precipitation  
Precipitation 0.78 in - - ()
Sea Level Pressure  
Sea Level Pressure 29.85 in    
Wind  
Wind Speed 11 mph (SSW)    
Max Wind Speed 24 mph    
Max Gust Speed 31 mph    
Visibility 10 miles    
Events Thunderstorm    
Averages and records for this station are not official NWS values.
T = Trace of Precipitation, MM = Missing Value Source: NWS Daily Summary

Daily Weather History Graph

Daily Weather History Graph

Search for Another Location

Airport or City:

Trip Planner

Search our weather history database for the weather conditions in past years. The results will help you decide how hot, cold, wet, or windy it might be!

Date:

Astronomy

May. 21, 2013 Rise Set
Actual Time 5:36 AM CDT 7:59 PM CDT
Civil Twilight 5:06 AM CDT 8:29 PM CDT
Nautical Twilight 4:29 AM CDT 9:06 PM CDT
Astronomical Twilight 3:48 AM CDT 9:46 PM CDT
Moon 4:15 PM CDT (5/21) 2:59 AM CDT (5/21)
Length of Visible Light 15h 23m
Length of Day
14h 23m
Waxing Gibbous, 84% of the Moon is Illuminated
May 21
Waxing Gibbous
May 24
Full
May 31
Last Quarter
Jun 8
New
Jun 16
First Quarter

Hourly Weather History & Observations

Time (CDT) Temp. Dew Point Humidity Pressure Visibility Wind Dir Wind Speed Gust Speed Precip Events Conditions
12:15 AM 75.2 °F 62.6 °F 65% 29.90 in 10.0 mi SSW 9.2 mph - N/A   Scattered Clouds
12:35 AM 75.2 °F 62.6 °F 65% 29.89 in 10.0 mi South 10.4 mph - N/A   Mostly Cloudy
12:55 AM 73.4 °F 62.6 °F 69% 29.90 in 10.0 mi SSW 9.2 mph - N/A   Partly Cloudy
1:15 AM 73.4 °F 60.8 °F 65% 29.89 in 10.0 mi South 8.1 mph - N/A   Clear
1:35 AM 73.4 °F 60.8 °F 65% 29.87 in 10.0 mi South 10.4 mph - N/A   Clear
1:55 AM 73.4 °F 60.8 °F 65% 29.87 in 10.0 mi South 10.4 mph - N/A   Clear
2:15 AM 73.4 °F 60.8 °F 65% 29.86 in 10.0 mi South 10.4 mph - N/A   Partly Cloudy
2:35 AM 73.4 °F 60.8 °F 65% 29.88 in 10.0 mi NNW 15.0 mph 21.9 mph N/A   Mostly Cloudy
2:55 AM 69.8 °F 55.4 °F 60% 29.87 in 10.0 mi NNE 4.6 mph - N/A   Overcast
3:15 AM 69.8 °F 55.4 °F 60% 29.87 in 10.0 mi NE 4.6 mph - N/A   Overcast
3:35 AM 68.0 °F 55.4 °F 64% 29.87 in 10.0 mi NE 11.5 mph - N/A   Overcast
3:55 AM 66.2 °F 53.6 °F 64% 29.87 in 10.0 mi NNE 10.4 mph - N/A Thunderstorm Overcast
4:15 AM 60.8 °F 53.6 °F 77% 29.86 in 10.0 mi NE 10.4 mph - N/A Thunderstorm Thunderstorm
4:35 AM 64.4 °F 55.4 °F 73% 29.93 in 9.0 mi WNW 15.0 mph 25.3 mph 0.05 in Thunderstorm Thunderstorm
4:55 AM 64.4 °F 55.4 °F 73% 29.94 in 7.0 mi WNW 15.0 mph 19.6 mph 0.37 in Thunderstorm Thunderstorm
5:15 AM 64.4 °F 55.4 °F 73% 29.92 in 10.0 mi North 4.6 mph - 0.04 in   Mostly Cloudy
5:35 AM 64.4 °F 55.4 °F 73% 29.89 in 10.0 mi ENE 4.6 mph - 0.04 in   Mostly Cloudy
5:55 AM 64.4 °F 55.4 °F 73% 29.89 in 10.0 mi SE 8.1 mph - 0.04 in   Mostly Cloudy
6:15 AM 64.4 °F 55.4 °F 73% 29.90 in 9.0 mi ESE 8.1 mph - 0.02 in   Overcast
6:35 AM 64.4 °F 55.4 °F 73% 29.87 in 10.0 mi SE 11.5 mph 18.4 mph 0.03 in   Mostly Cloudy
6:55 AM 64.4 °F 55.4 °F 73% 29.90 in 10.0 mi SSE 11.5 mph - 0.03 in   Partly Cloudy
7:15 AM 64.4 °F 55.4 °F 73% 29.88 in 10.0 mi SSE 13.8 mph 18.4 mph N/A   Partly Cloudy
7:35 AM 66.2 °F 55.4 °F 68% 29.88 in 10.0 mi South 12.7 mph - N/A   Mostly Cloudy
7:55 AM 66.2 °F 55.4 °F 68% 29.88 in 10.0 mi SSW 12.7 mph - N/A   Mostly Cloudy
8:15 AM 69.8 °F 57.2 °F 64% 29.87 in 10.0 mi SSW 11.5 mph - N/A   Partly Cloudy
8:35 AM 71.6 °F 57.2 °F 60% 29.87 in 10.0 mi SSW 13.8 mph 17.3 mph N/A   Clear
8:55 AM 73.4 °F 57.2 °F 57% 29.86 in 10.0 mi SSW 16.1 mph 20.7 mph N/A   Clear
9:15 AM 71.6 °F 57.2 °F 60% 29.86 in 10.0 mi South 16.1 mph 20.7 mph N/A   Clear
9:35 AM 71.6 °F 57.2 °F 60% 29.86 in 10.0 mi South 15.0 mph 20.7 mph N/A   Clear
9:55 AM 75.2 °F 59.0 °F 57% 29.85 in 10.0 mi SSW 9.2 mph - N/A   Clear
10:35 AM 75.2 °F 59.0 °F 57% 29.87 in 10.0 mi WSW 12.7 mph 21.9 mph N/A   Clear
10:55 AM 75.2 °F 59.0 °F 57% 29.88 in 10.0 mi WSW 21.9 mph 26.5 mph N/A   Clear
11:15 AM 78.8 °F 60.8 °F 54% 29.87 in 10.0 mi WSW 20.7 mph 28.8 mph N/A   Clear
11:35 AM 77.0 °F 60.8 °F 57% 29.88 in 10.0 mi SSW 24.2 mph 31.1 mph N/A   Clear
11:55 AM 75.2 °F 57.2 °F 53% 29.88 in 10.0 mi SSW 16.1 mph 28.8 mph N/A   Clear
12:15 PM 73.4 °F 57.2 °F 57% 29.87 in 10.0 mi South 12.7 mph - N/A   Clear
12:35 PM 71.6 °F 57.2 °F 60% 29.88 in 10.0 mi SSW 16.1 mph 28.8 mph N/A   Partly Cloudy
12:55 PM 71.6 °F 57.2 °F 60% 29.86 in 10.0 mi South 18.4 mph 23.0 mph N/A   Clear
1:15 PM 71.6 °F 57.2 °F 60% 29.88 in 10.0 mi SW 12.7 mph 19.6 mph N/A   Scattered Clouds
1:35 PM 71.6 °F 57.2 °F 60% 29.89 in 10.0 mi SSW 12.7 mph - N/A   Mostly Cloudy
1:55 PM 71.6 °F 57.2 °F 60% 29.89 in 10.0 mi SW 13.8 mph 20.7 mph N/A   Partly Cloudy
2:15 PM 73.4 °F 57.2 °F 57% 29.87 in 10.0 mi SW 10.4 mph - N/A   Scattered Clouds
2:35 PM 75.2 °F 59.0 °F 57% 29.87 in 10.0 mi SW 11.5 mph - N/A   Partly Cloudy
2:55 PM 75.2 °F 59.0 °F 57% 29.85 in 10.0 mi SSW 9.2 mph - N/A   Partly Cloudy
3:15 PM 75.2 °F 59.0 °F 57% 29.83 in 10.0 mi South 4.6 mph - N/A   Partly Cloudy
3:35 PM 77.0 °F 59.0 °F 54% 29.82 in 10.0 mi South 10.4 mph - N/A   Clear
3:55 PM 78.8 °F 60.8 °F 54% 29.81 in 10.0 mi SSW 10.4 mph - N/A   Clear
4:15 PM 78.8 °F 60.8 °F 54% 29.80 in 10.0 mi SSW 11.5 mph 16.1 mph N/A   Clear
4:35 PM 78.8 °F 60.8 °F 54% 29.80 in 10.0 mi WSW 12.7 mph - N/A   Clear
5:15 PM 78.8 °F 60.8 °F 54% 29.80 in 10.0 mi WSW 8.1 mph - N/A   Clear
5:35 PM 78.8 °F 62.6 °F 57% 29.80 in 10.0 mi WSW 9.2 mph - N/A   Clear
5:55 PM 78.8 °F 62.6 °F 57% 29.79 in 10.0 mi WSW 9.2 mph - N/A   Partly Cloudy
6:15 PM 78.8 °F 62.6 °F 57% 29.79 in 10.0 mi SW 9.2 mph - N/A   Partly Cloudy
6:35 PM 78.8 °F 62.6 °F 57% 29.79 in 10.0 mi SSW 9.2 mph - N/A   Mostly Cloudy
6:55 PM 77.0 °F 60.8 °F 57% 29.80 in 10.0 mi SSW 6.9 mph - N/A   Scattered Clouds
7:15 PM 75.2 °F 60.8 °F 61% 29.80 in 10.0 mi SSW 9.2 mph - N/A   Mostly Cloudy
7:35 PM 75.2 °F 60.8 °F 61% 29.80 in 10.0 mi South 6.9 mph - N/A   Scattered Clouds
7:55 PM 73.4 °F 60.8 °F 65% 29.81 in 10.0 mi South 15.0 mph - N/A Thunderstorm Mostly Cloudy
8:15 PM 66.2 °F 55.4 °F 68% 29.84 in 10.0 mi SSW 19.6 mph 28.8 mph 0.26 in Thunderstorm Thunderstorm
8:35 PM 66.2 °F 55.4 °F 68% 29.83 in 10.0 mi SW 17.3 mph 24.2 mph 0.30 in Thunderstorm Thunderstorm
8:55 PM 66.2 °F 55.4 °F 68% 29.82 in 10.0 mi SSW 11.5 mph 25.3 mph 0.33 in   Overcast
9:15 PM 64.4 °F 53.6 °F 68% 29.81 in 10.0 mi South 10.4 mph - 0.01 in   Mostly Cloudy
9:35 PM 64.4 °F 53.6 °F 68% 29.80 in 10.0 mi SE 6.9 mph - 0.01 in   Mostly Cloudy
9:55 PM 64.4 °F 55.4 °F 73% 29.81 in 10.0 mi SE 3.5 mph - 0.01 in   Scattered Clouds
10:15 PM 66.2 °F 55.4 °F 68% 29.82 in 10.0 mi South 9.2 mph - N/A   Clear
10:35 PM 66.2 °F 55.4 °F 68% 29.82 in 10.0 mi South 9.2 mph - N/A   Clear
10:55 PM 66.2 °F 55.4 °F 68% 29.81 in 10.0 mi South 10.4 mph - N/A   Clear
11:15 PM 66.2 °F 55.4 °F 68% 29.81 in 10.0 mi SSW 12.7 mph 17.3 mph N/A   Clear
11:35 PM 66.2 °F 55.4 °F 68% 29.81 in 10.0 mi SSW 18.4 mph 24.2 mph N/A   Clear
11:55 PM 66.2 °F 55.4 °F 68% 29.80 in 10.0 mi South 15.0 mph 21.9 mph N/A   Mostly Cloudy